Location: Bosmont
(49.7318°N, 3.8587°E)
Time: 15:24:21
(UTC+00:00)

SKYMED 2 - Pass Details

Date: 08 February 2023
Orbit: 621 x 623 km, 97.9° (Epoch: 26 March)

Event Time Altitude Azimuth Distance (km) Brightness Sun altitude
Rises 17:46:06 0° 16° (NNE) 2,920 6.7 -9.3°
Reaches altitude 10° 17:48:20 10° 19° (NNE) 2,008 5.9 -9.7°
Maximum altitude 17:52:40 64° 101° (ESE) 693 3.6 -10.4°
Drops below altitude 10° 17:56:59 10° 184° (S) 1,990 6.3 -11.0°
Sets 17:59:10 0° 187° (S) 2,891 7.2 -11.4°
